Location: Chuathbaluk
(61.5726°N, 159.2454°W)
Time: 12:21:03
(UTC+00:00)

N. Korean satellite - Pass Details

Date: 29 October 2020
Orbit: 453 x 503 km, 97.2° (Epoch: 04 December)

Event Time Altitude Azimuth Distance (km) Brightness Sun altitude
Rises 17:00:22 0° 14° (NNE) 2,498 10.2 -7.4°
Reaches altitude 10° 17:02:26 10° 10° (N) 1,614 9.2 -7.2°
Maximum altitude 17:05:50 56° 292° (WNW) 549 6.5 -6.8°
Drops below altitude 10° 17:09:11 10° 213° (SSW) 1,595 9.0 -6.4°
Sets 17:11:13 0° 210° (SSW) 2,465 10.0 -6.2°
